TOM3LG EGKK-LSGG

Flight info

Callsign TOM3LG
Flight time N/A
Altitude 23000
Route SFD Y47 BENBO L612 HAWKE/N0427F310 UL612 VEULE DCT PEKIM DCT PILUL DCT PIMUP/N0396F270 DCT PIXIS DCT PIBAT DCT LUSAR
Aircraft B738/M-SDE2E3FGHIRWXY/LB1

Departure

Time N/A
Airport London Gatwick Airport (EGKK)

Arrival

Time 2026-05-05 18:53
Airport Geneva International Airport (LSGG)
Time Latitude Longitude Altitude Speed Heading
2026-05-05 18:28 46.67242 4.25880 20858 ft 291 kts 172°
2026-05-05 18:29 46.65351 4.26971 20828 ft 301 kts 152°
2026-05-05 18:29 46.63630 4.28976 20570 ft 333 kts 135°
2026-05-05 18:29 46.62304 4.31801 20317 ft 347 kts 117°
2026-05-05 18:29 46.61633 4.35204 20062 ft 353 kts 98°
2026-05-05 18:30 46.61644 4.38778 19914 ft 354 kts 88°
2026-05-05 18:30 46.61905 4.42338 19865 ft 354 kts 85°
2026-05-05 18:30 46.62225 4.45906 19854 ft 354 kts 85°
2026-05-05 18:30 46.62536 4.49452 19842 ft 355 kts 85°
2026-05-05 18:31 46.62825 4.53038 19853 ft 355 kts 86°
2026-05-05 18:31 46.63088 4.56586 19849 ft 355 kts 86°
2026-05-05 18:31 46.63338 4.60170 19844 ft 355 kts 87°
2026-05-05 18:31 46.63576 4.63740 19849 ft 355 kts 87°
2026-05-05 18:32 46.63808 4.67323 19846 ft 355 kts 87°
2026-05-05 18:32 46.64032 4.70842 19851 ft 354 kts 87°
2026-05-05 18:32 46.64259 4.74452 19857 ft 354 kts 87°
2026-05-05 18:32 46.64482 4.78019 19855 ft 354 kts 88°
2026-05-05 18:33 46.64704 4.81582 19855 ft 354 kts 88°
2026-05-05 18:33 46.64925 4.85150 19857 ft 354 kts 88°
2026-05-05 18:33 46.65145 4.88725 19846 ft 354 kts 88°
2026-05-05 18:33 46.65364 4.92300 19855 ft 354 kts 88°
2026-05-05 18:34 46.65582 4.95881 19860 ft 355 kts 88°
2026-05-05 18:34 46.65799 4.99456 19859 ft 355 kts 88°
2026-05-05 18:34 46.65997 5.02742 19862 ft 356 kts 88°
2026-05-05 18:34 46.66213 5.06341 19861 ft 356 kts 88°
2026-05-05 18:35 46.66429 5.09945 19861 ft 357 kts 88°
2026-05-05 18:35 46.66643 5.13534 19862 ft 357 kts 88°
2026-05-05 18:35 46.66847 5.17144 19859 ft 356 kts 90°
2026-05-05 18:35 46.66628 5.20703 19610 ft 353 kts 105°
2026-05-05 18:36 46.66077 5.24164 19390 ft 350 kts 107°
2026-05-05 18:36 46.65507 5.27601 19126 ft 347 kts 107°
2026-05-05 18:36 46.64945 5.31054 18876 ft 345 kts 106°
2026-05-05 18:36 46.64406 5.34463 18638 ft 345 kts 105°
2026-05-05 18:37 46.63882 5.37857 18407 ft 344 kts 105°
2026-05-05 18:37 46.63370 5.41211 18170 ft 343 kts 105°
2026-05-05 18:37 46.62854 5.44592 17899 ft 342 kts 105°
2026-05-05 18:37 46.62336 5.47986 17594 ft 338 kts 105°
2026-05-05 18:38 46.61822 5.51312 17232 ft 336 kts 105°
2026-05-05 18:38 46.61306 5.54618 16877 ft 334 kts 105°
2026-05-05 18:38 46.60793 5.57904 16530 ft 332 kts 105°
2026-05-05 18:38 46.60281 5.61176 16180 ft 331 kts 105°
2026-05-05 18:39 46.59771 5.64431 15849 ft 329 kts 105°
2026-05-05 18:39 46.59264 5.67663 15506 ft 327 kts 106°
2026-05-05 18:39 46.58761 5.70871 15180 ft 326 kts 106°
2026-05-05 18:39 46.58255 5.74084 14855 ft 324 kts 106°
2026-05-05 18:40 46.57752 5.77272 14537 ft 323 kts 106°
2026-05-05 18:40 46.57100 5.80358 14192 ft 317 kts 122°
2026-05-05 18:40 46.55746 5.82819 13886 ft 308 kts 142°
2026-05-05 18:40 46.54030 5.84660 13554 ft 305 kts 149°
2026-05-05 18:41 46.52269 5.86373 13184 ft 304 kts 149°
2026-05-05 18:41 46.50525 5.88086 12843 ft 303 kts 149°
2026-05-05 18:41 46.48790 5.89806 12502 ft 302 kts 149°
2026-05-05 18:41 46.47069 5.91523 12140 ft 295 kts 149°
2026-05-05 18:42 46.45396 5.93200 11838 ft 288 kts 149°
2026-05-05 18:42 46.43761 5.94838 11547 ft 285 kts 149°
2026-05-05 18:42 46.42129 5.96471 11217 ft 286 kts 149°
2026-05-05 18:42 46.40478 5.98120 10808 ft 290 kts 149°
2026-05-05 18:43 46.38844 5.99753 10411 ft 290 kts 149°
2026-05-05 18:43 46.37372 6.01414 10043 ft 294 kts 135°
2026-05-05 18:43 46.36382 6.04031 9661 ft 302 kts 108°
2026-05-05 18:43 46.36289 6.07020 9398 ft 305 kts 82°
2026-05-05 18:44 46.37079 6.09873 9127 ft 307 kts 58°
2026-05-05 18:44 46.38313 6.12352 8904 ft 299 kts 53°
2026-05-05 18:44 46.39564 6.14690 8669 ft 288 kts 53°
2026-05-05 18:44 46.40772 6.16926 8443 ft 276 kts 53°
2026-05-05 18:45 46.41937 6.19072 8173 ft 268 kts 53°
2026-05-05 18:45 46.43079 6.21177 7904 ft 262 kts 53°
2026-05-05 18:45 46.44192 6.23235 7651 ft 258 kts 53°
2026-05-05 18:45 46.45304 6.25287 7398 ft 258 kts 53°
2026-05-05 18:46 46.46142 6.27557 7130 ft 255 kts 80°
2026-05-05 18:46 46.46127 6.30017 6917 ft 238 kts 108°
2026-05-05 18:46 46.45687 6.32300 6670 ft 233 kts 113°
2026-05-05 18:46 46.45211 6.34511 6422 ft 227 kts 119°
2026-05-05 18:47 46.44292 6.36252 6139 ft 212 kts 153°
2026-05-05 18:47 46.42961 6.36881 5899 ft 197 kts 181°
2026-05-05 18:47 46.41663 6.36439 5619 ft 190 kts 217°
2026-05-05 18:47 46.40651 6.35239 5393 ft 188 kts 219°
2026-05-05 18:48 46.39672 6.34014 5121 ft 189 kts 222°
2026-05-05 18:48 46.38690 6.32668 4875 ft 197 kts 224°
2026-05-05 18:48 46.37712 6.31271 4709 ft 197 kts 225°
2026-05-05 18:48 46.36756 6.29884 4626 ft 197 kts 225°
2026-05-05 18:49 46.35797 6.28483 4357 ft 189 kts 225°
2026-05-05 18:49 46.34919 6.27196 4121 ft 172 kts 225°
2026-05-05 18:49 46.34113 6.26014 3909 ft 158 kts 225°
2026-05-05 18:49 46.33340 6.24882 3708 ft 153 kts 225°
2026-05-05 18:50 46.32595 6.23789 3519 ft 152 kts 224°
2026-05-05 18:50 46.31847 6.22694 3306 ft 154 kts 224°
2026-05-05 18:50 46.31112 6.21617 3099 ft 149 kts 224°
2026-05-05 18:50 46.30399 6.20570 2911 ft 144 kts 223°
2026-05-05 18:51 46.29708 6.19557 2735 ft 141 kts 222°
2026-05-05 18:51 46.29019 6.18548 2509 ft 144 kts 224°
2026-05-05 18:51 46.28311 6.17510 2362 ft 148 kts 224°
2026-05-05 18:51 46.27581 6.16429 2142 ft 150 kts 223°
2026-05-05 18:52 46.26857 6.15365 1920 ft 147 kts 224°
2026-05-05 18:52 46.26140 6.14318 1713 ft 146 kts 224°
2026-05-05 18:52 46.25438 6.13274 1524 ft 145 kts 223°
2026-05-05 18:52 46.24725 6.12239 1368 ft 141 kts 224°
2026-05-05 18:53 46.24122 6.11359 1372 ft 90 kts 225°
2026-05-05 18:53 46.23925 6.11085 1378 ft 18 kts 207°
2026-05-05 18:53 46.23819 6.11073 1379 ft 12 kts 171°
2026-05-05 18:53 46.23772 6.11087 1377 ft 0 kts 161°
2026-05-05 18:54 46.23765 6.11093 1379 ft 4 kts 151°
2026-05-05 18:55 46.23742 6.11105 1376 ft 6 kts 170°
2026-05-05 18:55 46.23698 6.11067 1373 ft 11 kts 224°
2026-05-05 18:55 46.23626 6.10965 1375 ft 17 kts 225°
2026-05-05 18:55 46.23543 6.10843 1378 ft 17 kts 225°
2026-05-05 18:56 46.23464 6.10726 1380 ft 16 kts 225°
2026-05-05 18:56 46.23393 6.10630 1382 ft 8 kts 221°
2026-05-05 18:56 46.23358 6.10610 1388 ft 1 kts 184°
2026-05-05 18:56 46.23354 6.10601 1404 ft 4 kts 231°
2026-05-05 18:57 46.23312 6.10520 1381 ft 8 kts 211°
2026-05-05 18:57 46.23260 6.10554 1386 ft 9 kts 140°
2026-05-05 18:57 46.23253 6.10608 1385 ft 4 kts 30°
2026-05-05 18:57 46.23281 6.10609 1383 ft 4 kts
2026-05-05 18:58 46.23299 6.10609 1382 ft 0 kts